Location: Beuerbach
(48.1459°N, 10.9174°E)
Time: 01:27:18
(UTC+00:00)

Cosmos 1455 - Pass Details

Date: 10 August 2024
Orbit: 431 x 444 km, 82.5° (Epoch: 11 September)

Event Time Altitude Azimuth Distance (km) Brightness Sun altitude
Exits shadow 02:35:28 - 162° (SSE) 2,475 5.4 -13.2°
Rises 02:35:30 0° 162° (SSE) 2,458 5.4 -13.2°
Reaches altitude 10° 02:37:46 10° 149° (SSE) 1,587 4.6 -12.9°
Maximum altitude 02:40:43 26° 91° (E) 921 4.0 -12.5°
Drops below altitude 10° 02:43:39 10° 33° (NNE) 1,586 6.0 -12.2°
Sets 02:45:55 0° 20° (NNE) 2,458 6.8 -11.9°
